Time,TemperatureF,DewpointF,PressureIn,WindDirection,WindDirectionDegrees,WindSpeedMPH,WindSpeedGustMPH,Humidity,HourlyPrecipIn,Conditions,Clouds,dailyrainin,SoftwareType,DateUTC
2013-05-02 00:01:00,59.4,57.3,29.86,NW,315,0.0,0.0,91,0.00,,,0.00,fowsr,2013-05-02 04:01:00,
2013-05-02 00:06:00,59.4,57.3,29.86,NW,315,0.0,0.0,91,0.00,,,0.00,fowsr,2013-05-02 04:06:00,
2013-05-02 00:11:00,59.4,57.3,29.86,SE,135,0.7,1.6,91,0.00,,,0.00,fowsr,2013-05-02 04:11:00,
2013-05-02 00:16:00,59.4,57.3,29.86,West,270,0.0,0.7,91,0.00,,,0.00,fowsr,2013-05-02 04:16:00,
2013-05-02 00:21:00,59.4,57.3,29.86,SW,225,0.7,2.2,91,0.00,,,0.00,fowsr,2013-05-02 04:21:00,
2013-05-02 00:26:00,59.4,57.3,29.85,NW,315,0.0,0.0,91,0.00,,,0.00,fowsr,2013-05-02 04:26:00,
2013-05-02 00:31:00,59.4,57.3,29.86,West,270,0.7,2.2,91,0.00,,,0.00,fowsr,2013-05-02 04:31:00,
2013-05-02 00:36:00,59.2,57.2,29.85,West,270,0.0,0.7,91,0.00,,,0.00,fowsr,2013-05-02 04:36:00,
2013-05-02 00:41:00,59.2,57.2,29.85,NW,315,0.0,1.6,91,0.00,,,0.00,fowsr,2013-05-02 04:41:00,
2013-05-02 00:46:00,59.2,57.2,29.86,SW,225,0.0,0.7,91,0.00,,,0.00,fowsr,2013-05-02 04:46:00,
2013-05-02 00:51:00,59.2,57.2,29.86,NW,315,0.0,1.6,91,0.00,,,0.00,fowsr,2013-05-02 04:51:00,
2013-05-02 00:56:00,59.2,57.2,29.85,South,180,0.0,1.6,91,0.00,,,0.00,fowsr,2013-05-02 04:56:00,
2013-05-02 01:01:00,59.2,57.2,29.85,West,270,0.0,1.6,91,0.00,,,0.00,fowsr,2013-05-02 05:01:00,
2013-05-02 01:06:00,59.2,57.2,29.85,NE,45,0.0,0.7,91,0.00,,,0.00,fowsr,2013-05-02 05:06:00,
2013-05-02 01:11:00,59.0,57.2,29.85,NW,315,0.7,2.2,92,0.00,,,0.00,fowsr,2013-05-02 05:11:00,
2013-05-02 01:16:00,59.0,57.2,29.85,SE,135,0.0,1.6,92,0.00,,,0.00,fowsr,2013-05-02 05:16:00,
2013-05-02 01:21:00,59.0,57.2,29.85,NW,315,0.0,0.7,92,0.00,,,0.00,fowsr,2013-05-02 05:21:00,
2013-05-02 01:26:00,59.0,57.0,29.85,SSE,157,0.0,0.7,91,0.00,,,0.00,fowsr,2013-05-02 05:26:00,
2013-05-02 01:31:00,59.0,57.0,29.85,West,270,0.0,1.6,91,0.00,,,0.00,fowsr,2013-05-02 05:31:00,
2013-05-02 01:36:00,59.0,57.0,29.85,NW,315,0.0,0.0,91,0.00,,,0.00,fowsr,2013-05-02 05:36:00,
2013-05-02 01:41:00,59.0,57.0,29.85,West,270,0.0,1.6,91,0.00,,,0.00,fowsr,2013-05-02 05:41:00,
2013-05-02 01:46:00,59.0,57.0,29.85,South,180,0.0,1.6,91,0.00,,,0.00,fowsr,2013-05-02 05:46:00,
2013-05-02 01:56:00,59.0,57.0,29.85,North,0,0.0,0.0,91,0.00,,,0.00,fowsr,2013-05-02 05:56:00,
2013-05-02 02:01:00,59.2,57.2,29.85,West,270,0.0,1.6,91,0.00,,,0.00,fowsr,2013-05-02 06:01:00,
2013-05-02 02:06:00,59.2,57.2,29.85,West,270,0.0,1.6,91,0.00,,,0.00,fowsr,2013-05-02 06:06:00,
2013-05-02 02:11:00,59.2,57.2,29.85,SW,225,0.0,0.7,91,0.00,,,0.00,fowsr,2013-05-02 06:11:00,
2013-05-02 02:16:00,59.2,57.2,29.85,South,180,0.7,2.2,91,0.00,,,0.00,fowsr,2013-05-02 06:16:00,
2013-05-02 02:21:00,59.2,56.9,29.85,SE,135,0.0,0.7,90,0.00,,,0.00,fowsr,2013-05-02 06:21:00,
2013-05-02 02:26:00,59.2,56.9,29.85,East,90,0.0,0.7,90,0.00,,,0.00,fowsr,2013-05-02 06:26:00,
2013-05-02 02:31:00,59.2,56.9,29.85,North,0,0.0,0.0,90,0.00,,,0.00,fowsr,2013-05-02 06:31:00,
2013-05-02 02:36:00,59.2,56.9,29.84,NW,315,0.0,0.0,90,0.00,,,0.00,fowsr,2013-05-02 06:36:00,
2013-05-02 02:41:00,59.2,56.9,29.84,North,0,0.0,0.7,90,0.00,,,0.00,fowsr,2013-05-02 06:41:00,
2013-05-02 02:46:00,59.2,56.9,29.84,NW,315,0.0,0.0,90,0.00,,,0.00,fowsr,2013-05-02 06:46:00,
2013-05-02 02:51:00,59.0,56.8,29.84,NE,45,0.0,0.7,90,0.00,,,0.00,fowsr,2013-05-02 06:51:00,
2013-05-02 02:56:00,59.0,56.8,29.84,West,270,0.0,0.7,90,0.00,,,0.00,fowsr,2013-05-02 06:56:00,
2013-05-02 03:01:00,59.0,56.8,29.84,SSE,157,0.0,0.7,90,0.00,,,0.00,fowsr,2013-05-02 07:01:00,
2013-05-02 03:06:00,59.0,56.8,29.84,South,180,0.0,0.0,90,0.00,,,0.00,fowsr,2013-05-02 07:06:00,
2013-05-02 03:11:00,59.0,56.8,29.84,SW,225,0.7,3.1,90,0.00,,,0.00,fowsr,2013-05-02 07:11:00,
2013-05-02 03:16:00,59.0,56.8,29.84,South,180,0.0,0.7,90,0.00,,,0.00,fowsr,2013-05-02 07:16:00,
2013-05-02 03:21:00,58.8,56.8,29.84,South,180,0.0,0.0,91,0.00,,,0.00,fowsr,2013-05-02 07:21:00,
2013-05-02 03:26:00,58.8,57.0,29.83,West,270,0.0,0.0,92,0.00,,,0.00,fowsr,2013-05-02 07:26:00,
2013-05-02 03:31:00,58.8,57.0,29.84,SE,135,0.0,0.7,92,0.00,,,0.00,fowsr,2013-05-02 07:31:00,
2013-05-02 03:36:00,58.8,57.0,29.84,East,90,0.0,0.0,92,0.00,,,0.00,fowsr,2013-05-02 07:36:00,
2013-05-02 03:41:00,58.8,57.0,29.83,West,270,0.0,0.7,92,0.00,,,0.00,fowsr,2013-05-02 07:41:00,
2013-05-02 03:46:00,58.6,56.9,29.84,ENE,67,0.0,0.0,92,0.00,,,0.00,fowsr,2013-05-02 07:46:00,
2013-05-02 03:51:00,58.6,56.9,29.84,West,270,0.0,0.7,92,0.00,,,0.00,fowsr,2013-05-02 07:51:00,
2013-05-02 03:56:00,58.6,56.9,29.84,SE,135,0.0,0.0,92,0.00,,,0.00,fowsr,2013-05-02 07:56:00,
2013-05-02 04:01:00,58.6,56.9,29.84,SW,225,0.0,0.7,92,0.00,,,0.00,fowsr,2013-05-02 08:01:00,
2013-05-02 04:06:00,58.6,56.9,29.84,SW,225,0.0,0.7,92,0.00,,,0.00,fowsr,2013-05-02 08:06:00,
2013-05-02 04:11:00,58.5,56.7,29.84,SW,225,0.0,1.6,92,0.00,,,0.00,fowsr,2013-05-02 08:11:00,
2013-05-02 04:16:00,58.5,56.7,29.84,SE,135,0.0,0.0,92,0.00,,,0.00,fowsr,2013-05-02 08:16:00,
2013-05-02 04:21:00,58.5,56.7,29.84,SE,135,0.0,0.7,92,0.00,,,0.00,fowsr,2013-05-02 08:21:00,
2013-05-02 04:26:00,58.5,56.9,29.84,East,90,0.0,0.0,93,0.00,,,0.00,fowsr,2013-05-02 08:26:00,
2013-05-02 04:31:00,58.3,56.7,29.84,NW,315,0.0,0.0,93,0.00,,,0.00,fowsr,2013-05-02 08:31:00,
2013-05-02 04:36:00,58.3,56.7,29.83,SW,225,0.0,0.0,93,0.00,,,0.00,fowsr,2013-05-02 08:36:00,
2013-05-02 04:41:00,58.3,56.7,29.84,WSW,247,0.0,0.0,93,0.00,,,0.00,fowsr,2013-05-02 08:41:00,
2013-05-02 04:46:00,58.3,56.7,29.83,North,0,0.0,0.0,93,0.00,,,0.00,fowsr,2013-05-02 08:46:00,
2013-05-02 04:51:00,58.3,56.7,29.83,NW,315,0.0,0.0,93,0.00,,,0.00,fowsr,2013-05-02 08:51:00,
2013-05-02 04:56:00,58.3,56.7,29.84,West,270,0.0,0.7,93,0.00,,,0.00,fowsr,2013-05-02 08:56:00,
2013-05-02 05:01:00,58.1,56.6,29.83,East,90,0.0,0.0,93,0.00,,,0.00,fowsr,2013-05-02 09:01:00,
2013-05-02 05:06:00,58.1,56.6,29.83,South,180,0.0,0.7,93,0.00,,,0.00,fowsr,2013-05-02 09:06:00,
2013-05-02 05:11:00,58.1,56.6,29.84,South,180,0.0,0.0,93,0.00,,,0.00,fowsr,2013-05-02 09:11:00,
2013-05-02 05:16:00,58.1,56.6,29.83,West,270,0.0,0.7,93,0.00,,,0.00,fowsr,2013-05-02 09:16:00,
2013-05-02 05:21:00,58.1,56.6,29.83,South,180,0.0,0.0,93,0.00,,,0.00,fowsr,2013-05-02 09:21:00,
2013-05-02 05:26:00,58.1,56.6,29.83,South,180,0.0,0.0,93,0.00,,,0.00,fowsr,2013-05-02 09:26:00,
2013-05-02 05:31:00,58.1,56.6,29.83,SW,225,0.0,0.0,93,0.00,,,0.00,fowsr,2013-05-02 09:31:00,
2013-05-02 05:36:00,58.1,56.6,29.83,SW,225,0.0,0.0,93,0.00,,,0.00,fowsr,2013-05-02 09:36:00,
2013-05-02 05:41:00,58.1,56.6,29.83,SSE,157,0.7,1.6,93,0.00,,,0.00,fowsr,2013-05-02 09:41:00,
2013-05-02 05:46:00,58.1,56.8,29.83,SW,225,0.0,1.6,94,0.00,,,0.00,fowsr,2013-05-02 09:46:00,
2013-05-02 05:51:00,58.1,56.8,29.83,West,270,0.0,0.7,94,0.00,,,0.00,fowsr,2013-05-02 09:51:00,
2013-05-02 05:56:00,58.1,56.8,29.83,NE,45,0.0,0.7,94,0.00,,,0.00,fowsr,2013-05-02 09:56:00,
2013-05-02 06:01:00,58.1,56.8,29.83,NW,315,0.0,0.7,94,0.00,,,0.00,fowsr,2013-05-02 10:01:00,
2013-05-02 06:06:00,58.1,56.8,29.83,NW,315,0.0,0.7,94,0.00,,,0.00,fowsr,2013-05-02 10:06:00,
2013-05-02 06:11:00,58.1,56.8,29.83,NW,315,0.0,0.0,94,0.00,,,0.00,fowsr,2013-05-02 10:11:00,
2013-05-02 06:16:00,58.1,56.8,29.84,North,0,0.0,0.0,94,0.00,,,0.00,fowsr,2013-05-02 10:16:00,
2013-05-02 06:21:00,58.1,56.8,29.84,West,270,0.0,0.7,94,0.00,,,0.00,fowsr,2013-05-02 10:21:00,
2013-05-02 06:26:00,58.1,56.8,29.84,NW,315,2.2,3.1,94,0.00,,,0.00,fowsr,2013-05-02 10:26:00,
2013-05-02 06:31:00,57.9,56.6,29.84,East,90,0.0,0.0,94,0.00,,,0.00,fowsr,2013-05-02 10:31:00,
2013-05-02 06:36:00,57.9,56.6,29.84,SE,135,0.0,0.7,94,0.00,,,0.00,fowsr,2013-05-02 10:36:00,
2013-05-02 06:41:00,57.9,56.6,29.85,SE,135,0.0,0.7,94,0.00,,,0.00,fowsr,2013-05-02 10:41:00,
2013-05-02 06:46:00,57.9,56.6,29.85,NE,45,0.0,0.7,94,0.00,,,0.00,fowsr,2013-05-02 10:46:00,
2013-05-02 06:51:00,57.9,56.6,29.85,NW,315,0.0,0.7,94,0.00,,,0.00,fowsr,2013-05-02 10:51:00,
2013-05-02 06:56:00,57.9,56.6,29.85,NW,315,0.0,0.0,94,0.00,,,0.00,fowsr,2013-05-02 10:56:00,
2013-05-02 07:01:00,57.9,56.6,29.85,West,270,0.0,0.7,94,0.00,,,0.00,fowsr,2013-05-02 11:01:00,
2013-05-02 07:06:00,57.9,56.6,29.85,NW,315,0.0,2.2,94,0.00,,,0.00,fowsr,2013-05-02 11:06:00,
2013-05-02 07:11:00,57.9,56.6,29.85,West,270,0.0,1.6,94,0.00,,,0.00,fowsr,2013-05-02 11:11:00,
2013-05-02 07:16:00,57.9,56.6,29.85,North,0,0.0,0.7,94,0.00,,,0.00,fowsr,2013-05-02 11:16:00,
2013-05-02 07:21:00,58.1,56.8,29.85,South,180,0.0,0.7,94,0.00,,,0.00,fowsr,2013-05-02 11:21:00,
2013-05-02 07:26:00,58.1,56.8,29.85,West,270,0.0,0.7,94,0.00,,,0.00,fowsr,2013-05-02 11:26:00,
2013-05-02 07:31:00,58.3,57.0,29.84,NW,315,0.0,0.0,94,0.00,,,0.00,fowsr,2013-05-02 11:31:00,
2013-05-02 07:36:00,58.3,57.0,29.85,NW,315,0.0,0.7,94,0.00,,,0.00,fowsr,2013-05-02 11:36:00,
2013-05-02 07:41:00,58.5,56.9,29.85,East,90,2.2,3.8,93,0.00,,,0.00,fowsr,2013-05-02 11:41:00,
2013-05-02 07:46:00,58.5,56.9,29.85,SW,225,0.0,1.6,93,0.00,,,0.00,fowsr,2013-05-02 11:46:00,
2013-05-02 07:51:00,58.6,57.1,29.85,SE,135,0.0,0.0,93,0.00,,,0.00,fowsr,2013-05-02 11:51:00,
2013-05-02 07:56:00,58.5,56.9,29.85,South,180,0.0,0.0,93,0.00,,,0.00,fowsr,2013-05-02 11:56:00,
2013-05-02 08:01:00,58.6,57.1,29.86,West,270,0.0,1.6,93,0.00,,,0.00,fowsr,2013-05-02 12:01:00,
2013-05-02 08:06:00,58.6,57.1,29.86,West,270,0.0,0.0,93,0.00,,,0.00,fowsr,2013-05-02 12:06:00,
2013-05-02 08:11:00,58.6,57.1,29.86,SW,225,0.0,0.7,93,0.00,,,0.00,fowsr,2013-05-02 12:11:00,
2013-05-02 08:16:00,58.8,57.3,29.86,SW,225,0.0,0.7,93,0.00,,,0.00,fowsr,2013-05-02 12:16:00,
2013-05-02 08:21:00,58.8,57.3,29.85,SW,225,0.0,2.2,93,0.00,,,0.00,fowsr,2013-05-02 12:21:00,
2013-05-02 08:26:00,58.8,57.3,29.86,North,0,0.0,1.6,93,0.00,,,0.00,fowsr,2013-05-02 12:26:00,
2013-05-02 08:31:00,58.8,57.3,29.85,SE,135,0.0,0.0,93,0.00,,,0.00,fowsr,2013-05-02 12:31:00,
2013-05-02 08:36:00,58.8,57.0,29.86,NW,315,0.0,0.0,92,0.00,,,0.00,fowsr,2013-05-02 12:36:00,
2013-05-02 08:41:00,58.8,57.0,29.86,West,270,0.0,3.1,92,0.00,,,0.00,fowsr,2013-05-02 12:41:00,
2013-05-02 08:46:00,59.0,57.0,29.86,South,180,0.0,0.7,91,0.00,,,0.00,fowsr,2013-05-02 12:46:00,
2013-05-02 08:51:00,59.0,57.2,29.86,NNE,22,0.0,1.6,92,0.00,,,0.00,fowsr,2013-05-02 12:51:00,
2013-05-02 08:56:00,59.2,57.2,29.86,NW,315,0.7,1.6,91,0.00,,,0.00,fowsr,2013-05-02 12:56:00,
2013-05-02 09:01:00,59.4,57.3,29.86,West,270,0.0,0.7,91,0.00,,,0.00,fowsr,2013-05-02 13:01:00,
2013-05-02 09:06:00,59.4,57.3,29.86,West,270,0.7,2.2,91,0.00,,,0.00,fowsr,2013-05-02 13:06:00,
2013-05-02 09:11:00,59.4,57.3,29.87,NW,315,0.0,1.6,91,0.00,,,0.00,fowsr,2013-05-02 13:11:00,
2013-05-02 09:16:00,59.5,57.5,29.86,South,180,0.0,0.7,91,0.00,,,0.00,fowsr,2013-05-02 13:16:00,
2013-05-02 09:21:00,59.7,57.7,29.86,West,270,0.0,0.0,91,0.00,,,0.00,fowsr,2013-05-02 13:21:00,
2013-05-02 09:26:00,59.7,57.7,29.87,SW,225,0.0,0.0,91,0.00,,,0.00,fowsr,2013-05-02 13:26:00,
2013-05-02 09:31:00,59.9,57.9,29.86,West,270,0.7,1.6,91,0.00,,,0.00,fowsr,2013-05-02 13:31:00,
2013-05-02 09:36:00,59.9,57.6,29.86,SW,225,0.0,0.7,90,0.00,,,0.00,fowsr,2013-05-02 13:36:00,
2013-05-02 09:41:00,60.1,57.8,29.86,NW,315,0.7,2.2,90,0.00,,,0.00,fowsr,2013-05-02 13:41:00,
2013-05-02 09:46:00,60.3,58.0,29.86,NW,315,0.0,0.7,90,0.00,,,0.00,fowsr,2013-05-02 13:46:00,
2013-05-02 09:51:00,60.3,58.0,29.86,SE,135,0.0,0.7,90,0.00,,,0.00,fowsr,2013-05-02 13:51:00,
2013-05-02 09:56:00,60.4,58.2,29.87,North,0,0.0,0.7,90,0.00,,,0.00,fowsr,2013-05-02 13:56:00,
2013-05-02 10:01:00,60.6,58.4,29.87,West,270,0.0,1.6,90,0.00,,,0.00,fowsr,2013-05-02 14:01:00,
2013-05-02 10:06:00,60.4,57.9,29.87,NW,315,0.7,2.2,89,0.00,,,0.00,fowsr,2013-05-02 14:06:00,
2013-05-02 10:11:00,60.4,57.9,29.87,ESE,112,0.0,1.6,89,0.00,,,0.00,fowsr,2013-05-02 14:11:00,
2013-05-02 10:16:00,60.4,57.9,29.87,SW,225,0.0,0.7,89,0.00,,,0.00,fowsr,2013-05-02 14:16:00,
2013-05-02 10:21:00,60.6,58.1,29.87,South,180,0.7,1.6,89,0.00,,,0.00,fowsr,2013-05-02 14:21:00,
2013-05-02 10:26:00,60.8,58.1,29.87,West,270,0.0,0.7,88,0.00,,,0.00,fowsr,2013-05-02 14:26:00,
2013-05-02 10:31:00,61.2,58.4,29.86,NW,315,0.0,0.7,88,0.00,,,0.00,fowsr,2013-05-02 14:31:00,
2013-05-02 10:36:00,61.3,58.3,29.87,SW,225,0.7,1.6,87,0.00,,,0.00,fowsr,2013-05-02 14:36:00,
2013-05-02 10:41:00,61.3,58.3,29.87,SW,225,0.7,1.6,87,0.00,,,0.00,fowsr,2013-05-02 14:41:00,
2013-05-02 10:46:00,61.2,57.9,29.87,SW,225,0.7,2.2,86,0.00,,,0.00,fowsr,2013-05-02 14:46:00,
2013-05-02 10:51:00,61.3,58.1,29.87,NW,315,0.0,0.0,86,0.00,,,0.00,fowsr,2013-05-02 14:51:00,
2013-05-02 10:56:00,61.5,58.3,29.87,West,270,0.7,2.2,86,0.00,,,0.00,fowsr,2013-05-02 14:56:00,
2013-05-02 11:01:00,61.2,57.7,29.87,NNE,22,0.0,0.0,85,0.00,,,0.00,fowsr,2013-05-02 15:01:00,
2013-05-02 11:06:00,61.2,57.7,29.87,NW,315,0.0,0.0,85,0.00,,,0.00,fowsr,2013-05-02 15:06:00,
2013-05-02 11:11:00,61.0,57.7,29.87,NW,315,0.0,1.6,86,0.00,,,0.00,fowsr,2013-05-02 15:11:00,
2013-05-02 11:16:00,61.0,57.7,29.87,West,270,0.7,1.6,86,0.00,,,0.00,fowsr,2013-05-02 15:16:00,
2013-05-02 11:21:00,61.0,57.7,29.87,South,180,0.0,0.7,86,0.00,,,0.00,fowsr,2013-05-02 15:21:00,
2013-05-02 11:26:00,61.0,57.7,29.87,South,180,0.7,3.1,86,0.00,,,0.00,fowsr,2013-05-02 15:26:00,
2013-05-02 11:31:00,61.0,57.7,29.87,South,180,0.0,1.6,86,0.00,,,0.00,fowsr,2013-05-02 15:31:00,
2013-05-02 11:36:00,61.2,57.7,29.87,SW,225,0.7,1.6,85,0.00,,,0.00,fowsr,2013-05-02 15:36:00,
2013-05-02 11:41:00,61.3,57.8,29.87,NW,315,1.6,2.2,85,0.00,,,0.00,fowsr,2013-05-02 15:41:00,
2013-05-02 11:46:00,61.7,57.9,29.87,West,270,0.0,1.6,84,0.00,,,0.00,fowsr,2013-05-02 15:46:00,
2013-05-02 11:51:00,61.9,58.1,29.87,NW,315,0.7,1.6,84,0.00,,,0.00,fowsr,2013-05-02 15:51:00,
2013-05-02 11:56:00,62.2,58.2,29.87,West,270,0.0,0.7,83,0.00,,,0.00,fowsr,2013-05-02 15:56:00,
2013-05-02 12:01:00,62.2,58.2,29.87,North,0,0.0,0.7,83,0.00,,,0.00,fowsr,2013-05-02 16:01:00,
2013-05-02 12:06:00,62.4,58.4,29.87,East,90,0.0,1.6,83,0.00,,,0.00,fowsr,2013-05-02 16:06:00,
2013-05-02 12:11:00,62.4,58.4,29.87,South,180,0.0,1.6,83,0.00,,,0.00,fowsr,2013-05-02 16:11:00,
2013-05-02 12:16:00,62.4,58.1,29.87,North,0,0.7,3.1,82,0.00,,,0.00,fowsr,2013-05-02 16:16:00,
2013-05-02 12:21:00,62.2,58.0,29.87,West,270,0.0,0.7,82,0.00,,,0.00,fowsr,2013-05-02 16:21:00,
2013-05-02 12:26:00,62.8,58.2,29.87,SW,225,0.0,1.6,81,0.00,,,0.00,fowsr,2013-05-02 16:26:00,
2013-05-02 12:31:00,63.3,58.7,29.87,North,0,0.0,1.6,81,0.00,,,0.00,fowsr,2013-05-02 16:31:00,
2013-05-02 12:36:00,64.6,60.2,29.86,NE,45,0.7,1.6,82,0.00,,,0.00,fowsr,2013-05-02 16:36:00,
2013-05-02 12:41:00,65.5,60.8,29.86,NW,315,0.0,0.0,81,0.00,,,0.00,fowsr,2013-05-02 16:41:00,
2013-05-02 12:46:00,66.0,60.8,29.86,West,270,0.0,0.0,79,0.00,,,0.00,fowsr,2013-05-02 16:46:00,
2013-05-02 12:51:00,65.8,60.6,29.87,SE,135,0.0,0.7,79,0.00,,,0.00,fowsr,2013-05-02 16:51:00,
2013-05-02 12:56:00,65.7,60.2,29.87,NW,315,0.0,0.7,78,0.00,,,0.00,fowsr,2013-05-02 16:56:00,
2013-05-02 13:01:00,65.3,59.8,29.86,West,270,0.0,1.6,78,0.00,,,0.00,fowsr,2013-05-02 17:01:00,
2013-05-02 13:06:00,64.9,59.5,29.86,South,180,0.7,1.6,78,0.00,,,0.00,fowsr,2013-05-02 17:06:00,
2013-05-02 13:11:00,64.8,59.3,29.86,East,90,0.7,2.2,78,0.00,,,0.00,fowsr,2013-05-02 17:11:00,
2013-05-02 13:16:00,64.6,59.4,29.86,West,270,0.7,1.6,79,0.00,,,0.00,fowsr,2013-05-02 17:16:00,
2013-05-02 13:21:00,64.6,59.4,29.86,SE,135,0.0,0.7,79,0.00,,,0.00,fowsr,2013-05-02 17:21:00,
2013-05-02 13:26:00,64.8,59.3,29.86,West,270,0.7,2.2,78,0.00,,,0.00,fowsr,2013-05-02 17:26:00,
2013-05-02 13:31:00,64.8,59.3,29.86,SW,225,0.0,0.7,78,0.00,,,0.00,fowsr,2013-05-02 17:31:00,
2013-05-02 13:36:00,64.9,59.5,29.86,West,270,0.7,1.6,78,0.00,,,0.00,fowsr,2013-05-02 17:36:00,
2013-05-02 13:41:00,64.6,59.1,29.86,South,180,0.0,1.6,78,0.00,,,0.00,fowsr,2013-05-02 17:41:00,
2013-05-02 13:46:00,64.4,59.0,29.87,West,270,0.7,1.6,78,0.00,,,0.00,fowsr,2013-05-02 17:46:00,
2013-05-02 13:51:00,64.4,59.0,29.87,NE,45,0.0,1.6,78,0.00,,,0.00,fowsr,2013-05-02 17:51:00,
2013-05-02 14:01:00,64.2,58.8,29.86,West,270,0.0,1.6,78,0.00,,,0.00,fowsr,2013-05-02 18:01:00,
2013-05-02 14:06:00,64.0,58.6,29.86,SE,135,1.6,5.4,78,0.00,,,0.00,fowsr,2013-05-02 18:06:00,
2013-05-02 14:11:00,63.9,58.7,29.86,North,0,0.0,0.7,79,0.00,,,0.00,fowsr,2013-05-02 18:11:00,
2013-05-02 14:16:00,64.0,58.9,29.86,SE,135,0.7,1.6,79,0.00,,,0.00,fowsr,2013-05-02 18:16:00,
2013-05-02 14:21:00,64.2,59.1,29.86,NW,315,0.0,0.7,79,0.00,,,0.00,fowsr,2013-05-02 18:21:00,
2013-05-02 14:26:00,64.2,59.1,29.86,SW,225,0.7,1.6,79,0.00,,,0.00,fowsr,2013-05-02 18:26:00,
2013-05-02 14:31:00,64.2,59.1,29.86,SW,225,0.0,0.7,79,0.00,,,0.00,fowsr,2013-05-02 18:31:00,
2013-05-02 14:36:00,64.0,58.9,29.86,South,180,0.0,0.7,79,0.00,,,0.00,fowsr,2013-05-02 18:36:00,
2013-05-02 14:41:00,64.0,58.9,29.86,SW,225,0.0,0.7,79,0.00,,,0.00,fowsr,2013-05-02 18:41:00,
2013-05-02 14:46:00,64.0,58.9,29.86,NW,315,0.0,0.7,79,0.00,,,0.00,fowsr,2013-05-02 18:46:00,
2013-05-02 14:56:00,64.0,58.9,29.86,NW,315,0.7,2.2,79,0.00,,,0.00,fowsr,2013-05-02 18:56:00,
2013-05-02 15:01:00,64.0,59.2,29.85,NW,315,0.0,0.7,80,0.00,,,0.00,fowsr,2013-05-02 19:01:00,
2013-05-02 15:06:00,64.0,59.2,29.85,SW,225,0.0,0.7,80,0.00,,,0.00,fowsr,2013-05-02 19:06:00,
2013-05-02 15:11:00,63.9,59.0,29.86,South,180,0.0,0.7,80,0.00,,,0.00,fowsr,2013-05-02 19:11:00,
2013-05-02 15:16:00,63.9,59.0,29.86,South,180,0.0,0.7,80,0.00,,,0.00,fowsr,2013-05-02 19:16:00,
2013-05-02 15:21:00,63.9,58.7,29.85,NW,315,0.0,0.7,79,0.00,,,0.00,fowsr,2013-05-02 19:21:00,
2013-05-02 15:26:00,63.9,58.7,29.85,North,0,0.0,1.6,79,0.00,,,0.00,fowsr,2013-05-02 19:26:00,
2013-05-02 15:31:00,63.7,58.6,29.85,NNW,337,0.0,0.7,79,0.00,,,0.00,fowsr,2013-05-02 19:31:00,
2013-05-02 15:36:00,63.9,58.7,29.85,South,180,0.7,3.1,79,0.00,,,0.00,fowsr,2013-05-02 19:36:00,
2013-05-02 15:41:00,63.9,58.7,29.85,South,180,0.0,1.6,79,0.00,,,0.00,fowsr,2013-05-02 19:41:00,
2013-05-02 15:46:00,64.0,58.9,29.85,NW,315,0.7,3.1,79,0.00,,,0.00,fowsr,2013-05-02 19:46:00,
2013-05-02 15:51:00,64.0,58.9,29.84,West,270,0.0,0.7,79,0.00,,,0.00,fowsr,2013-05-02 19:51:00,
2013-05-02 15:56:00,64.2,59.1,29.84,West,270,0.7,2.2,79,0.00,,,0.00,fowsr,2013-05-02 19:56:00,
2013-05-02 16:01:00,64.0,58.9,29.84,NW,315,0.0,0.7,79,0.00,,,0.00,fowsr,2013-05-02 20:01:00,
2013-05-02 16:06:00,63.9,58.7,29.84,North,0,0.7,1.6,79,0.00,,,0.00,fowsr,2013-05-02 20:06:00,
2013-05-02 16:11:00,63.7,58.6,29.84,NW,315,0.0,0.7,79,0.00,,,0.00,fowsr,2013-05-02 20:11:00,
2013-05-02 16:16:00,63.5,58.4,29.84,West,270,0.0,1.6,79,0.00,,,0.00,fowsr,2013-05-02 20:16:00,
2013-05-02 16:21:00,63.5,58.4,29.84,NE,45,0.0,0.7,79,0.00,,,0.00,fowsr,2013-05-02 20:21:00,
2013-05-02 16:26:00,63.7,58.8,29.84,NW,315,0.0,0.7,80,0.00,,,0.00,fowsr,2013-05-02 20:26:00,
2013-05-02 16:31:00,63.5,58.6,29.84,NW,315,0.7,2.2,80,0.00,,,0.00,fowsr,2013-05-02 20:31:00,
2013-05-02 16:36:00,63.5,58.6,29.83,South,180,0.0,0.7,80,0.00,,,0.00,fowsr,2013-05-02 20:36:00,
2013-05-02 16:41:00,63.5,58.6,29.83,SW,225,0.7,2.2,80,0.00,,,0.00,fowsr,2013-05-02 20:41:00,
2013-05-02 16:46:00,63.7,58.8,29.83,NW,315,0.0,0.7,80,0.00,,,0.00,fowsr,2013-05-02 20:46:00,
2013-05-02 16:51:00,63.5,58.6,29.83,North,0,0.0,1.6,80,0.00,,,0.00,fowsr,2013-05-02 20:51:00,
2013-05-02 16:56:00,63.5,58.6,29.83,NW,315,0.0,0.0,80,0.00,,,0.00,fowsr,2013-05-02 20:56:00,
2013-05-02 17:01:00,63.3,58.5,29.83,NW,315,0.0,0.7,80,0.00,,,0.00,fowsr,2013-05-02 21:01:00,
2013-05-02 17:06:00,63.3,58.5,29.83,South,180,0.0,1.6,80,0.00,,,0.00,fowsr,2013-05-02 21:06:00,
2013-05-02 17:11:00,63.1,58.3,29.82,NW,315,0.0,0.7,80,0.00,,,0.00,fowsr,2013-05-02 21:11:00,
2013-05-02 17:16:00,63.3,58.5,29.83,East,90,0.0,0.7,80,0.00,,,0.00,fowsr,2013-05-02 21:16:00,
2013-05-02 17:21:00,63.3,58.7,29.82,NW,315,0.0,0.0,81,0.00,,,0.00,fowsr,2013-05-02 21:21:00,
2013-05-02 17:26:00,63.3,58.7,29.83,ESE,112,0.0,0.7,81,0.00,,,0.00,fowsr,2013-05-02 21:26:00,
2013-05-02 17:31:00,63.5,58.9,29.83,NW,315,0.0,0.0,81,0.00,,,0.00,fowsr,2013-05-02 21:31:00,
2013-05-02 17:36:00,63.5,58.6,29.82,SW,225,0.0,1.6,80,0.00,,,0.00,fowsr,2013-05-02 21:36:00,
2013-05-02 17:41:00,63.5,58.6,29.83,SE,135,0.0,0.7,80,0.00,,,0.00,fowsr,2013-05-02 21:41:00,
2013-05-02 17:46:00,63.3,58.5,29.82,SE,135,0.0,0.7,80,0.00,,,0.00,fowsr,2013-05-02 21:46:00,
2013-05-02 17:51:00,63.1,58.3,29.82,East,90,0.0,0.7,80,0.00,,,0.00,fowsr,2013-05-02 21:51:00,
2013-05-02 17:56:00,63.0,58.1,29.82,NW,315,0.0,0.7,80,0.00,,,0.00,fowsr,2013-05-02 21:56:00,
2013-05-02 18:01:00,63.0,58.1,29.82,West,270,0.0,0.7,80,0.00,,,0.00,fowsr,2013-05-02 22:01:00,
2013-05-02 18:06:00,63.0,58.1,29.82,North,0,0.0,0.0,80,0.00,,,0.00,fowsr,2013-05-02 22:06:00,
2013-05-02 18:11:00,63.0,58.1,29.81,South,180,0.7,2.2,80,0.00,,,0.00,fowsr,2013-05-02 22:11:00,
2013-05-02 18:16:00,62.8,58.0,29.81,NW,315,0.0,0.7,80,0.00,,,0.00,fowsr,2013-05-02 22:16:00,
2013-05-02 18:21:00,62.6,57.8,29.82,North,0,0.0,0.7,80,0.00,,,0.00,fowsr,2013-05-02 22:21:00,
2013-05-02 18:26:00,62.6,57.8,29.82,South,180,0.0,0.0,80,0.00,,,0.00,fowsr,2013-05-02 22:26:00,
2013-05-02 18:31:00,62.6,58.0,29.82,South,180,0.0,0.7,81,0.00,,,0.00,fowsr,2013-05-02 22:31:00,
2013-05-02 18:36:00,62.4,58.1,29.82,SE,135,0.0,0.7,82,0.00,,,0.00,fowsr,2013-05-02 22:36:00,
2013-05-02 18:41:00,62.4,58.1,29.81,SW,225,0.0,0.0,82,0.00,,,0.00,fowsr,2013-05-02 22:41:00,
2013-05-02 18:46:00,62.2,58.0,29.82,West,270,0.0,1.6,82,0.00,,,0.00,fowsr,2013-05-02 22:46:00,
2013-05-02 18:51:00,62.2,57.7,29.81,SE,135,0.0,0.0,81,0.00,,,0.00,fowsr,2013-05-02 22:51:00,
2013-05-02 18:56:00,62.2,58.0,29.81,South,180,0.0,0.0,82,0.00,,,0.00,fowsr,2013-05-02 22:56:00,
2013-05-02 19:01:00,62.2,58.0,29.81,SW,225,0.0,0.0,82,0.00,,,0.00,fowsr,2013-05-02 23:01:00,
2013-05-02 19:06:00,62.2,58.0,29.81,SE,135,0.0,0.7,82,0.00,,,0.00,fowsr,2013-05-02 23:06:00,
2013-05-02 19:11:00,62.2,57.7,29.81,SW,225,0.0,0.0,81,0.00,,,0.00,fowsr,2013-05-02 23:11:00,
2013-05-02 19:16:00,62.2,58.0,29.81,West,270,0.0,0.0,82,0.00,,,0.00,fowsr,2013-05-02 23:16:00,
2013-05-02 19:21:00,62.1,57.8,29.81,NNE,22,0.7,2.2,82,0.00,,,0.00,fowsr,2013-05-02 23:21:00,
2013-05-02 19:26:00,62.1,57.8,29.81,SW,225,0.0,1.6,82,0.00,,,0.00,fowsr,2013-05-02 23:26:00,
2013-05-02 19:31:00,62.1,57.8,29.81,West,270,0.0,0.0,82,0.00,,,0.00,fowsr,2013-05-02 23:31:00,
2013-05-02 19:36:00,61.9,57.6,29.81,West,270,0.0,0.0,82,0.00,,,0.00,fowsr,2013-05-02 23:36:00,
2013-05-02 19:41:00,61.9,57.6,29.81,West,270,0.0,0.0,82,0.00,,,0.00,fowsr,2013-05-02 23:41:00,
2013-05-02 19:46:00,61.7,57.4,29.81,West,270,0.0,0.0,82,0.00,,,0.00,fowsr,2013-05-02 23:46:00,
2013-05-02 19:51:00,61.7,57.7,29.81,West,270,0.0,0.0,83,0.00,,,0.00,fowsr,2013-05-02 23:51:00,
2013-05-02 19:56:00,61.3,57.3,29.81,West,270,0.0,0.0,83,0.00,,,0.00,fowsr,2013-05-02 23:56:00,
2013-05-02 20:01:00,61.2,57.2,29.81,West,270,0.0,0.0,83,0.00,,,0.00,fowsr,2013-05-03 00:01:00,
2013-05-02 20:06:00,61.0,57.0,29.81,West,270,0.0,0.0,83,0.00,,,0.00,fowsr,2013-05-03 00:06:00,
2013-05-02 20:11:00,60.8,56.8,29.81,West,270,0.0,0.0,83,0.00,,,0.00,fowsr,2013-05-03 00:11:00,
2013-05-02 20:16:00,60.4,57.0,29.81,West,270,0.0,0.0,85,0.00,,,0.00,fowsr,2013-05-03 00:16:00,
2013-05-02 20:21:00,60.3,56.8,29.81,West,270,0.0,0.0,85,0.00,,,0.00,fowsr,2013-05-03 00:21:00,
2013-05-02 20:26:00,59.9,56.4,29.81,West,270,0.0,0.0,85,0.00,,,0.00,fowsr,2013-05-03 00:26:00,
2013-05-02 20:31:00,59.7,56.5,29.81,West,270,0.0,0.0,86,0.00,,,0.00,fowsr,2013-05-03 00:31:00,
2013-05-02 20:36:00,59.4,56.2,29.81,West,270,0.0,0.0,86,0.00,,,0.00,fowsr,2013-05-03 00:36:00,
2013-05-02 20:41:00,59.0,56.0,29.81,West,270,0.0,0.0,87,0.00,,,0.00,fowsr,2013-05-03 00:41:00,
2013-05-02 20:46:00,58.8,56.1,29.81,West,270,0.0,0.0,88,0.00,,,0.00,fowsr,2013-05-03 00:46:00,
2013-05-02 20:51:00,58.5,56.0,29.81,West,270,0.0,0.0,89,0.00,,,0.00,fowsr,2013-05-03 00:51:00,
2013-05-02 20:56:00,58.1,55.6,29.81,West,270,0.0,0.0,89,0.00,,,0.00,fowsr,2013-05-03 00:56:00,
2013-05-02 21:01:00,57.7,55.5,29.81,West,270,0.0,0.0,90,0.00,,,0.00,fowsr,2013-05-03 01:01:00,
2013-05-02 21:06:00,57.4,55.2,29.81,West,270,0.0,0.0,90,0.00,,,0.00,fowsr,2013-05-03 01:06:00,
2013-05-02 21:11:00,57.2,55.2,29.82,West,270,0.0,0.0,91,0.00,,,0.00,fowsr,2013-05-03 01:11:00,
2013-05-02 21:16:00,57.0,55.3,29.82,West,270,0.0,0.0,92,0.00,,,0.00,fowsr,2013-05-03 01:16:00,
2013-05-02 21:21:00,56.8,55.1,29.82,West,270,0.0,0.0,92,0.00,,,0.00,fowsr,2013-05-03 01:21:00,
2013-05-02 21:26:00,56.7,54.9,29.82,West,270,0.0,0.0,92,0.00,,,0.00,fowsr,2013-05-03 01:26:00,
2013-05-02 21:31:00,56.5,54.7,29.82,West,270,0.0,0.0,92,0.00,,,0.00,fowsr,2013-05-03 01:31:00,
2013-05-02 21:36:00,56.3,54.8,29.82,West,270,0.0,0.0,93,0.00,,,0.00,fowsr,2013-05-03 01:36:00,
2013-05-02 21:41:00,56.1,54.6,29.83,West,270,0.0,0.0,93,0.00,,,0.00,fowsr,2013-05-03 01:41:00,
2013-05-02 21:46:00,55.9,54.4,29.82,West,270,0.0,0.0,93,0.00,,,0.00,fowsr,2013-05-03 01:46:00,
2013-05-02 21:56:00,55.6,54.1,29.82,West,270,0.0,0.0,93,0.00,,,0.00,fowsr,2013-05-03 01:56:00,
2013-05-02 22:01:00,55.4,54.1,29.82,West,270,0.0,0.0,94,0.00,,,0.00,fowsr,2013-05-03 02:01:00,
2013-05-02 22:06:00,55.2,53.9,29.82,West,270,0.0,0.0,94,0.00,,,0.00,fowsr,2013-05-03 02:06:00,
2013-05-02 22:11:00,55.0,54.0,29.82,West,270,0.0,0.0,95,0.00,,,0.00,fowsr,2013-05-03 02:11:00,
2013-05-02 22:16:00,55.0,54.0,29.82,West,270,0.0,0.0,95,0.00,,,0.00,fowsr,2013-05-03 02:16:00,
2013-05-02 22:21:00,54.9,53.8,29.83,West,270,0.0,0.0,95,0.00,,,0.00,fowsr,2013-05-03 02:21:00,
2013-05-02 22:26:00,54.9,53.8,29.82,West,270,0.0,0.0,95,0.00,,,0.00,fowsr,2013-05-03 02:26:00,
2013-05-02 22:31:00,54.9,53.8,29.82,West,270,0.0,0.0,95,0.00,,,0.00,fowsr,2013-05-03 02:31:00,
2013-05-02 22:36:00,54.9,54.0,29.82,West,270,0.0,0.0,96,0.00,,,0.00,fowsr,2013-05-03 02:36:00,
2013-05-02 22:41:00,54.9,54.0,29.82,West,270,0.0,0.0,96,0.00,,,0.00,fowsr,2013-05-03 02:41:00,
2013-05-02 22:46:00,54.9,54.0,29.82,West,270,0.0,0.0,96,0.00,,,0.00,fowsr,2013-05-03 02:46:00,
2013-05-02 22:51:00,54.9,54.0,29.82,West,270,0.0,0.0,96,0.00,,,0.00,fowsr,2013-05-03 02:51:00,
2013-05-02 22:56:00,54.9,54.2,29.82,West,270,0.0,0.0,97,0.00,,,0.00,fowsr,2013-05-03 02:56:00,
2013-05-02 23:01:00,54.9,54.2,29.82,South,180,0.0,0.0,97,0.00,,,0.00,fowsr,2013-05-03 03:01:00,
2013-05-02 23:06:00,54.9,54.2,29.82,SW,225,0.0,0.7,97,0.00,,,0.00,fowsr,2013-05-03 03:06:00,
2013-05-02 23:11:00,54.9,54.2,29.82,SW,225,0.0,0.0,97,0.00,,,0.00,fowsr,2013-05-03 03:11:00,
2013-05-02 23:16:00,54.9,54.2,29.81,SE,135,0.0,0.0,97,0.00,,,0.00,fowsr,2013-05-03 03:16:00,
2013-05-02 23:21:00,54.9,54.2,29.82,NE,45,0.0,0.0,97,0.00,,,0.00,fowsr,2013-05-03 03:21:00,
2013-05-02 23:26:00,54.9,54.2,29.82,NE,45,0.0,0.0,97,0.00,,,0.00,fowsr,2013-05-03 03:26:00,
2013-05-02 23:31:00,54.9,54.2,29.82,NE,45,0.0,0.0,97,0.00,,,0.00,fowsr,2013-05-03 03:31:00,
2013-05-02 23:36:00,54.7,54.0,29.82,North,0,0.0,0.0,97,0.00,,,0.00,fowsr,2013-05-03 03:36:00,
2013-05-02 23:41:00,54.7,54.0,29.81,SE,135,0.0,0.0,97,0.00,,,0.00,fowsr,2013-05-03 03:41:00,
2013-05-02 23:46:00,54.7,54.0,29.82,SE,135,0.0,0.0,97,0.00,,,0.00,fowsr,2013-05-03 03:46:00,
2013-05-02 23:51:00,54.7,54.0,29.82,SE,135,0.0,0.0,97,0.00,,,0.00,fowsr,2013-05-03 03:51:00,
2013-05-02 23:56:00,54.5,53.9,29.81,SE,135,0.0,0.0,97,0.00,,,0.00,fowsr,2013-05-03 03:56:00,